This is the latest recevied weather packets stored in our database for station/object KN6KS. If no packets are shown the sender has not sent any weather packets the latest 10 day(s).
| Time | Temp. | Humidity | Pressure | Rain* | Wind** | Luminosity | Snow |
|---|---|---|---|---|---|---|---|
| 1777516659 | 18.33° C | 43% | 1012.8 hPa | 0 mm | - | 2 W/m² | - |
| 1777516355 | 18.33° C | 45% | 1012.6 hPa | 0 mm | - | 4 W/m² | - |
| 1777516051 | 18.33° C | 45% | 1012.4 hPa | 0 mm | - | 6 W/m² | - |
| 1777515748 | 18.33° C | 45% | 1012.2 hPa | 0 mm | - | 10 W/m² | - |
| 1777515445 | 18.89° C | 44% | 1012 hPa | 0 mm | - | 14 W/m² | - |
| 1777515142 | 18.89° C | 44% | 1012.1 hPa | 0 mm | - | 18 W/m² | - |
| 1777514838 | 18.89° C | 44% | 1012.2 hPa | 0 mm | - | 23 W/m² | - |
| 1777514535 | 19.44° C | 43% | 1012.1 hPa | 0 mm | - | 26 W/m² | - |
| 1777514233 | 19.44° C | 43% | 1012.4 hPa | 0 mm | - | 30 W/m² | - |
| 1777513928 | 19.44° C | 43% | 1012 hPa | 0 mm | - | 35 W/m² | - |
| 1777513626 | 20° C | 43% | 1012.5 hPa | 0 mm | - | 39 W/m² | - |
| 1777513323 | 20° C | 43% | 1012.5 hPa | 0 mm | - | 42 W/m² | - |
| 1777513019 | 20° C | 42% | 1012.2 hPa | 0 mm | - | 48 W/m² | - |
| 1777512715 | 20.56° C | 42% | 1012.2 hPa | 0 mm | - | 75 W/m² | - |
| 1777512412 | 20.56° C | 42% | 1012 hPa | 0 mm | - | 86 W/m² | - |
| 1777512109 | 20.56° C | 42% | 1012.2 hPa | 0 mm | - | 101 W/m² | - |
| 1777511807 | 20.56° C | 41% | 1012.6 hPa | 0 mm | - | 109 W/m² | - |
| 1777511503 | 21.11° C | 41% | 1012.4 hPa | 0 mm | - | 127 W/m² | - |
| 1777511200 | 21.11° C | 42% | 1012.2 hPa | 0 mm | - | 146 W/m² | - |
| 1777510896 | 21.11° C | 41% | 1012.2 hPa | 0 mm | - | 164 W/m² | - |
| 1777510593 | 21.67° C | 41% | 1012.2 hPa | 0 mm | - | 185 W/m² | - |
| 1777510289 | 21.67° C | 40% | 1012.4 hPa | 0 mm | - | 193 W/m² | - |
| 1777509986 | 22.22° C | 39% | 1012.6 hPa | 0 mm | - | 212 W/m² | - |
| 1777509682 | 22.22° C | 38% | 1012.2 hPa | 0 mm | - | 220 W/m² | - |
| 1777509379 | 22.22° C | 38% | 1012.2 hPa | 0 mm | - | 244 W/m² | - |
* Rain latest hour (hover to see other rain measurements)
** Current wind speed in m/s (hover to see current wind gust speed)